Regional Weather Roundup
Issued by NWS

Home | Current Version | Previous Version | Text Only | Print | Product List | Glossary On
Versions: 1 2 3 4 5 6 7 8 9 10 11 12 13 14 15 16 17 18 19 20 21 22 23 24 25 26 27 28 29 30 31 32 33 34 35 36 37 38 39 40 41 42 43 44 45 46 47 48 49 50
425
ASUS44 KJAN 280803
RWRMS

MISSISSIPPI HOURLY WEATHER ROUNDUP
NATIONAL WEATHER SERVICE JACKSON MS
200 AM CST SAT FEB 28 2015

NOTE: "FAIR: INDICATES FEW OR NO CLOUDS BELOW 12,000 FEET WITH NO
SIGNIFICANT WEATHER AND/OR OBSTRUCTIONS TO VISIBILITY.

MSZ001>002-007>008-010>013-018>021-025>028-034>036-280900-
NORTHWEST MISSISSIPPI

CITY           SKY/WX    TMP DP  RH WIND       PRES   REMARKS
CLARKSDALE     CLOUDY    28  19  69 N8        30.53R WCI  20
CLEVELAND      CLOUDY    31  24  77 NE8       30.50R WCI  23
GREENWOOD        N/A    N/A N/A N/A MISG      30.48F
GREENVILLE     CLOUDY    31  24  75 NE8       30.48F WCI  23
OLIVE BRANCH   CLOUDY    28  18  64 NE6       30.51F WCI  22
OXFORD         FAIR      30  14  51 NE6       30.49F WCI  24
TUNICA         MOSUNNY   30  19  64 N8        30.53S WCI  23
$$

MSZ003>006-009-014>017-022>024-029>033-037>039-280900-
NORTHEAST MISSISSIPPI

CITY           SKY/WX    TMP DP  RH WIND       PRES   REMARKS
COLUMBUS AFB   NOT AVBL
CORINTH        CLOUDY    30  14  51 NE10      30.50F WCI  21
GOLDN TRIANGLE CLOUDY    34  18  51 E7        30.46S WCI  28
STARKVILLE     CLOUDY    34  21  60 NE8       30.47S WCI  27
TUPELO         CLOUDY    33  14  45 E8        30.49F WCI  26
$$

MSZ040-058-280900-
CENTRAL MISSISSIPPI

CITY           SKY/WX    TMP DP  RH WIND       PRES   REMARKS
JACKSON INTL   MOCLDY    36  20  52 E6        30.44R WCI  31
JACKSON HAWKNS MOCLDY    37  19  48 NE5       30.45R WCI  33
MERIDIAN KEY   PTCLDY    33  19  56 NE7       30.45S WCI  27
MERIDIAN NAS   CLOUDY    35  18  49 NE6       30.46F WCI  30
VICKSBURG      CLOUDY    34  27  75 N6        30.47S WCI  29
$$

MSZ059>079-280900-
SOUTH MISSISSIPPI

CITY           SKY/WX    TMP DP  RH WIND       PRES   REMARKS
BROOKHAVEN       N/A     32  28  86 N5        30.44R WCI  27
HATTIESBURG    CLEAR     36  25  64 N6        30.44R WCI  31
MCCOMB         CLEAR     34  26  72 NE7       30.40F WCI  28
NATCHEZ        CLEAR     28  23  80 N3        30.45R
PINE BELT      CLEAR     34  21  60 NE7       30.43S WCI  28
$$

MSZ080>082-280900-
COASTAL MISSISSIPPI

CITY           SKY/WX    TMP DP  RH WIND       PRES   REMARKS
BILOXI         NOT AVBL
PASCAGOULA     CLEAR     39  28  64 N10       30.38S WCI  32
GULFPORT       CLEAR     41  27  57 N10       30.38S
$$



USA.gov is the U.S. government's official web portal to all federal, state and local government web resources and services.